TimeMDT,TemperatureF,Dew PointF,Humidity,Sea Level PressureIn,VisibilityMPH,Wind Direction,Wind SpeedMPH,Gust SpeedMPH,PrecipitationIn,Events,Conditions,WindDirDegrees,DateUTC
12:56 AM,46.9,34.0,61,29.75,-9999.0,SSE,10.4,-,N/A,,Unknown,160,2013-10-10 06:56:00
1:56 AM,46.9,32.0,56,29.77,-9999.0,SSW,8.1,-,N/A,,Unknown,210,2013-10-10 07:56:00
2:56 AM,48.0,33.1,56,29.75,-9999.0,SW,8.1,-,N/A,,Unknown,220,2013-10-10 08:56:00
3:56 AM,48.0,33.1,56,29.76,-9999.0,WSW,4.6,-,N/A,,Unknown,240,2013-10-10 09:56:00
4:56 AM,48.9,33.1,54,29.77,-9999.0,West,5.8,-,N/A,,Unknown,260,2013-10-10 10:56:00
5:56 AM,46.0,33.1,61,29.77,-9999.0,Variable,3.5,-,N/A,,Unknown,0,2013-10-10 11:56:00
6:56 AM,46.0,33.1,61,29.78,-9999.0,SW,4.6,-,N/A,,Unknown,220,2013-10-10 12:56:00
7:56 AM,55.0,35.1,47,29.76,-9999.0,South,5.8,-,N/A,,Unknown,180,2013-10-10 13:56:00
8:56 AM,66.9,36.0,32,29.73,-9999.0,South,18.4,-,N/A,,Unknown,180,2013-10-10 14:56:00
9:56 AM,66.9,44.1,44,29.74,-9999.0,South,16.1,24.2,N/A,,Unknown,190,2013-10-10 15:56:00
10:56 AM,70.0,46.0,42,29.70,-9999.0,South,19.6,27.6,N/A,,Unknown,180,2013-10-10 16:56:00
11:56 AM,73.9,46.9,38,29.67,-9999.0,South,23.0,29.9,N/A,,Unknown,190,2013-10-10 17:56:00
12:56 PM,77.0,45.0,32,29.63,-9999.0,South,25.3,35.7,N/A,,Unknown,190,2013-10-10 18:56:00
1:56 PM,79.0,44.1,29,29.56,-9999.0,South,32.2,43.7,N/A,,Unknown,180,2013-10-10 19:56:00
2:56 PM,79.0,42.1,27,29.52,-9999.0,South,36.8,47.2,N/A,,Unknown,180,2013-10-10 20:56:00
3:56 PM,80.1,39.0,23,29.48,-9999.0,South,39.1,49.5,N/A,,Unknown,180,2013-10-10 21:56:00
4:56 PM,79.0,33.1,19,29.46,-9999.0,South,35.7,51.8,N/A,,Unknown,190,2013-10-10 22:56:00
5:47 PM,60.8,48.2,63,29.71,-9999.0,WSW,31.1,47.2,N/A,,Unknown,250,2013-10-10 23:47:00
5:56 PM,59.0,48.0,67,29.61,-9999.0,West,28.8,49.5,N/A,,Unknown,260,2013-10-10 23:56:00
6:56 PM,57.0,43.0,59,29.60,-9999.0,WSW,16.1,27.6,N/A,,Unknown,250,2013-10-11 00:56:00
7:56 PM,60.1,39.0,46,29.57,-9999.0,WSW,17.3,35.7,N/A,,Unknown,250,2013-10-11 01:56:00
8:56 PM,59.0,35.1,41,29.58,-9999.0,WSW,17.3,29.9,N/A,,Unknown,240,2013-10-11 02:56:00
9:56 PM,55.0,34.0,45,29.61,-9999.0,WSW,10.4,17.3,N/A,,Unknown,240,2013-10-11 03:56:00
10:56 PM,55.9,28.9,36,29.57,-9999.0,West,25.3,40.3,N/A,,Unknown,260,2013-10-11 04:56:00
11:56 PM,55.0,19.9,25,29.56,-9999.0,WSW,17.3,42.6,N/A,,Unknown,240,2013-10-11 05:56:00